Content
SEND FEEDBACK

Daily
Averages
Monthly
Summary
France

PIC DU MIDI DE BIGORRE, FRANCE


Home > Europe > France
Elevation: 9378 feet     Latitude: 42 56N     Longitude: 000 08E

WEATHER
 
SELECT A DAY
Number of Records: 194,187;   Date Range: 7/1/96 - 9/15/14
 
SHARE

PRINT THIS DATA

[ ← Previous Day ]
WEATHER ALMANAC - JANUARY 31, 2013
[ Next Day → ]
[ °C ]   °F
Weather ElementAverageHighLow
Temperature51.8 °F63 °F (1:00 pm)41 °F (4:00 am)
Dewpoint45.7 °F53.6 °F (3:30 pm)37.4 °F (4:00 am)
Humidity79.7 %94 % (8:00 pm)58 % (1:00 pm)
Barometer30.37 in30.44 in (1:00 am)30.30 in (11:30 pm)
Wind Speed5.7 mph10.4 mph (9:00 am)
Weather ElementAverage
Visibility7.6 mi
Wind DirectionSSW (186.1 °)

Weather ElementTotal
Precipitation---
Heating Degree Days13 (Base 65)
Growing Degree Days2 (Base 50)
Averaged from 51 records on January 31, 2013
WEATHER CONDITIONS BREAKOUT
WIND DIRECTION BREAKOUT
WEATHER BY HOUR - JANUARY 31, 2013
[ °C ]   °F
Local TimeTemperatureDewpointHumidityBarometerVisibilityWind DirectionWind SpeedGust SpeedPrecipitationEventsConditions
12:30 AM46.4 °F42.8 °F87 %30.42 in6.2 miSSW (210°)3.5 mphMostly Cloudy
1:00 AM47.0 °F44.0 °F83 %30.44 in12.0 miSSE (160°)4.6 mphClear
1:00 AM46.4 °F42.8 °F87 %30.42 in6.2 miSSE (160°)4.6 mph
1:30 AM44.6 °F41.0 °F87 %30.42 in6.2 miSouth (180°)5.8 mph
2:00 AM44.6 °F41.0 °F87 %30.39 in6.2 miSouth (180°)8.1 mph
2:30 AM42.8 °F39.2 °F87 %30.36 in6.2 miSouth (180°)6.9 mph
3:00 AM42.8 °F39.2 °F87 %30.39 in6.2 miSSW (200°)2.3 mph
3:30 AM42.8 °F39.2 °F87 %30.36 in6.2 miSouth (190°)4.6 mph
4:00 AM41.0 °F37.4 °F87 %30.36 in6.2 miSouth (190°)5.8 mph
4:30 AM41.0 °F37.4 °F87 %30.36 in6.2 miSSW (200°)5.8 mph
5:00 AM42.8 °F39.2 °F87 %30.36 in6.2 miSouth (180°)6.9 mph
5:30 AM42.8 °F39.2 °F87 %30.36 in6.2 miSouth (180°)5.8 mph
6:00 AM41.0 °F39.2 °F93 %30.36 in6.2 miSouth (180°)6.9 mphPartly Cloudy
6:30 AM44.6 °F39.2 °F81 %30.36 in6.2 miSouth (180°)8.1 mphPartly Cloudy
7:00 AM45.0 °F40.0 °F78 %30.41 in34.0 miSouth (180°)6.9 mphClear
7:00 AM44.6 °F41.0 °F87 %30.36 in6.2 miSouth (180°)6.9 mphScattered Clouds
7:30 AM46.4 °F41.0 °F81 %30.36 in6.2 miSouth (180°)6.9 mphOvercast
8:00 AM46.4 °F39.2 °F76 %30.36 in6.2 miSouth (170°)9.2 mphMostly Cloudy
8:30 AM48.2 °F41.0 °F76 %30.39 in6.2 miSouth (180°)9.2 mphOvercast
9:00 AM50.0 °F41.0 °F71 %30.39 in6.2 miSouth (180°)10.4 mphOvercast
9:30 AM51.8 °F42.8 °F71 %30.39 in6.2 miSouth (180°)9.2 mphOvercast
10:00 AM53.6 °F44.6 °F72 %30.39 in6.2 miSSW (200°)6.9 mphMostly Cloudy
10:30 AM53.6 °F42.8 °F67 %30.39 in6.2 miSouth (190°)8.1 mphMostly Cloudy
11:00 AM57.2 °F44.6 °F63 %30.42 in6.2 miSSW (200°)6.9 mphMostly Cloudy
11:30 AM59.0 °F46.4 °F63 %30.42 in6.2 miVariable2.3 mphMostly Cloudy
12:00 PM62.6 °F48.2 °F59 %30.42 in6.2 miWNW (300°)5.8 mphMostly Cloudy
12:30 PM62.6 °F50.0 °F63 %30.39 in6.2 miVariable2.3 mphOvercast
1:00 PM63.0 °F52.0 °F58 %30.40 in28.0 miNNW (340°)8.1 mphClear
1:00 PM62.6 °F51.8 °F68 %30.42 in6.2 miNNW (340°)8.1 mphMostly Cloudy
1:30 PM62.6 °F51.8 °F68 %30.42 in6.2 miNW (320°)9.2 mphOvercast
2:00 PM62.6 °F50.0 °F63 %30.42 in6.2 miNW (310°)9.2 mphOvercast
2:30 PM60.8 °F51.8 °F72 %30.39 in6.2 miNW (320°)4.6 mphMostly Cloudy
3:00 PM62.6 °F51.8 °F68 %30.36 in6.2 miNNE (30°)3.5 mphMostly Cloudy
3:30 PM60.8 °F53.6 °F77 %30.36 in6.2 miNNE (30°)6.9 mphMostly Cloudy
4:00 PM60.8 °F53.6 °F77 %30.36 in6.2 miNorth (360°)6.9 mphOvercast
4:30 PM59.0 °F51.8 °F77 %30.36 in6.2 miNNW (340°)8.1 mphOvercast
5:00 PM59.0 °F51.8 °F77 %30.36 in6.2 miNorth (350°)6.9 mphOvercast
5:30 PM59.0 °F51.8 °F77 %30.36 in6.2 miNW (310°)3.5 mphOvercast
6:00 PM57.2 °F51.8 °F82 %30.36 in6.2 miSouth (190°)3.5 mphOvercast
6:30 PM57.2 °F51.8 °F82 %30.33 in6.2 miSSE (150°)6.9 mphScattered Clouds
7:00 PM55.0 °F50.0 °F78 %30.35 in22.0 miSSE (150°)3.5 mphClear
7:00 PM55.4 °F50.0 °F82 %30.33 in6.2 miSSE (150°)3.5 mph
7:30 PM51.8 °F48.2 °F88 %30.36 in6.2 miVariable2.3 mphPartly Cloudy
8:00 PM51.8 °F50.0 °F94 %30.33 in6.2 miSSE (160°)4.6 mphPartly Cloudy
8:30 PM50.0 °F46.4 °F87 %30.33 in6.2 miCalmScattered Clouds
9:00 PM50.0 °F46.4 °F87 %30.33 in6.2 miCalmOvercast
9:30 PM48.2 °F46.4 °F93 %30.33 in6.2 miWSW (240°)3.5 mphOvercast
10:00 PM50.0 °F48.2 °F94 %30.33 in6.2 miSouth (170°)4.6 mphOvercast
10:30 PM50.0 °F48.2 °F94 %30.33 in6.2 miSouth (170°)3.5 mphOvercast
11:00 PM50.0 °F48.2 °F94 %30.33 in6.2 miSSW (200°)3.5 mphOvercast
11:30 PM51.8 °F48.2 °F88 %30.30 in6.2 miSSE (150°)3.5 mphMostly Cloudy
Hourly data recorded from LFBT, located miles away from Pic du Midi de Bigorre, France







STORIES FROM OUR PARTNERS